Hourly Weather Fuzhou

Today, 15 July, Wednesday

Time Temperature Precipitation Wind Pressure Humidity
00:00 +26°C° 0 mm 0 mps 754 mmHg 96%
01:00 +26°C° 0 mm 0 mps 753 mmHg 97%
02:00 +26°C° 0 mm 0 mps 753 mmHg 97%
03:00 +25°C° 0 mm 0 mps 753 mmHg 97%
04:00 +25°C° 0 mm 0 mps 753 mmHg 97%
05:00 +25°C° 0 mm 0 mps 753 mmHg 96%
06:00 +26°C° 0 mm 0 mps 753 mmHg 91%
07:00 +28°C° 0 mm 0 mps 753 mmHg 86%
08:00 +29°C° 0 mm 0 mps 753 mmHg 79%
09:00 +31°C° 0 mm 0 mps 753 mmHg 71%
10:00 +35°C° 0 mm 1 mps 753 mmHg 63%
11:00 +37°C° 0 mm 1 mps 753 mmHg 55%
12:00 +37°C° 0.1 mm 1 mps 752 mmHg 55%
13:00 +38°C° 0.1 mm 2 mps 752 mmHg 55%
14:00 +39°C° 0.1 mm 2 mps 751 mmHg 54%
15:00 +37°C° 0.4 mm 2 mps 751 mmHg 61%
16:00 +36°C° 0.4 mm 2 mps 751 mmHg 68%
17:00 +35°C° 0.4 mm 2 mps 751 mmHg 75%
18:00 +32°C° 0.4 mm 1 mps 752 mmHg 81%
19:00 +31°C° 0.4 mm 1 mps 752 mmHg 86%
20:00 +30°C° 0.4 mm 1 mps 752 mmHg 92%
21:00 +29°C° 0.2 mm 1 mps 752 mmHg 92%
22:00 +29°C° 0.2 mm 1 mps 753 mmHg 93%
23:00 +29°C° 0.2 mm 1 mps 753 mmHg 94%

Tomorrow, 16 July, Thursday

Time Temperature Precipitation Wind Pressure Humidity
00:00 +28°C° 0 mm 1 mps 752 mmHg 94%
01:00 +28°C° 0 mm 1 mps 752 mmHg 93%
02:00 +28°C° 0 mm 1 mps 752 mmHg 93%
03:00 +28°C° 0 mm 1 mps 752 mmHg 93%
04:00 +28°C° 0 mm 1 mps 752 mmHg 92%
05:00 +27°C° 0 mm 1 mps 752 mmHg 92%
06:00 +29°C° 0 mm 1 mps 752 mmHg 87%
07:00 +30°C° 0 mm 1 mps 752 mmHg 83%
08:00 +31°C° 0 mm 1 mps 753 mmHg 78%
09:00 +33°C° 0.1 mm 1 mps 753 mmHg 71%
10:00 +35°C° 0.1 mm 1 mps 753 mmHg 64%
11:00 +37°C° 0.1 mm 1 mps 753 mmHg 57%
12:00 +37°C° 0 mm 1 mps 752 mmHg 53%
13:00 +39°C° 0 mm 2 mps 752 mmHg 48%
14:00 +40°C° 0 mm 2 mps 751 mmHg 44%
15:00 +39°C° 0.3 mm 2 mps 751 mmHg 50%
16:00 +38°C° 0.3 mm 2 mps 751 mmHg 55%
17:00 +37°C° 0.3 mm 2 mps 751 mmHg 61%
18:00 +35°C° 0.3 mm 2 mps 751 mmHg 68%
19:00 +32°C° 0.3 mm 1 mps 752 mmHg 76%
20:00 +30°C° 0.3 mm 1 mps 752 mmHg 83%
21:00 +30°C° 0.1 mm 1 mps 752 mmHg 86%
22:00 +29°C° 0.1 mm 1 mps 753 mmHg 88%
23:00 +29°C° 0.1 mm 1 mps 753 mmHg 90%

Day after tomorrow, 17 July, Friday

Time Temperature Precipitation Wind Pressure Humidity
00:00 +29°C° 0 mm 1 mps 753 mmHg 92%
01:00 +28°C° 0 mm 1 mps 752 mmHg 93%
02:00 +28°C° 0 mm 1 mps 752 mmHg 94%
03:00 +28°C° 0 mm 1 mps 752 mmHg 95%
04:00 +28°C° 0 mm 1 mps 752 mmHg 95%
05:00 +28°C° 0 mm 1 mps 752 mmHg 96%
06:00 +29°C° 0 mm 1 mps 753 mmHg 90%
07:00 +31°C° 0 mm 1 mps 753 mmHg 84%
08:00 +32°C° 0 mm 1 mps 753 mmHg 78%
09:00 +34°C° 0.2 mm 1 mps 753 mmHg 70%
10:00 +36°C° 0.2 mm 1 mps 753 mmHg 62%
11:00 +39°C° 0.2 mm 2 mps 753 mmHg 54%
12:00 +39°C° 0.1 mm 2 mps 753 mmHg 51%
13:00 +40°C° 0.1 mm 3 mps 752 mmHg 48%
14:00 +40°C° 0.1 mm 3 mps 752 mmHg 45%
15:00 +39°C° 0.2 mm 3 mps 752 mmHg 49%
16:00 +38°C° 0.2 mm 3 mps 752 mmHg 54%
17:00 +37°C° 0.2 mm 3 mps 751 mmHg 58%
18:00 +35°C° 0.1 mm 2 mps 752 mmHg 67%
19:00 +32°C° 0.1 mm 2 mps 753 mmHg 75%
20:00 +30°C° 0.1 mm 1 mps 753 mmHg 84%
21:00 +30°C° 0 mm 1 mps 753 mmHg 87%
22:00 +29°C° 0 mm 1 mps 753 mmHg 89%
23:00 +29°C° 0 mm 1 mps 754 mmHg 92%

18 July, Saturday

Time Temperature Precipitation Wind Pressure Humidity
00:00 +29°C° 0 mm 1 mps 753 mmHg 93%
01:00 +28°C° 0 mm 1 mps 753 mmHg 94%
02:00 +28°C° 0 mm 1 mps 753 mmHg 95%
03:00 +28°C° 0 mm 1 mps 753 mmHg 95%
04:00 +28°C° 0 mm 1 mps 753 mmHg 96%
05:00 +28°C° 0 mm 1 mps 753 mmHg 96%
06:00 +29°C° 0 mm 1 mps 753 mmHg 91%
07:00 +30°C° 0 mm 1 mps 753 mmHg 85%
08:00 +32°C° 0 mm 1 mps 754 mmHg 79%
09:00 +34°C° 0 mm 2 mps 754 mmHg 69%
10:00 +36°C° 0 mm 3 mps 754 mmHg 60%
11:00 +38°C° 0 mm 3 mps 754 mmHg 50%
12:00 +38°C° 0 mm 4 mps 753 mmHg 48%
13:00 +40°C° 0 mm 4 mps 753 mmHg 46%
14:00 +41°C° 0 mm 4 mps 752 mmHg 44%
15:00 +40°C° 0 mm 4 mps 752 mmHg 48%
16:00 +38°C° 0 mm 4 mps 752 mmHg 53%
17:00 +37°C° 0 mm 4 mps 752 mmHg 58%
18:00 +35°C° 0 mm 3 mps 752 mmHg 66%
19:00 +33°C° 0 mm 3 mps 753 mmHg 74%
20:00 +30°C° 0 mm 2 mps 753 mmHg 83%
21:00 +30°C° 0 mm 2 mps 753 mmHg 85%
22:00 +29°C° 0 mm 2 mps 753 mmHg 88%
23:00 +29°C° 0 mm 1 mps 753 mmHg 90%

19 July, Sunday

Time Temperature Precipitation Wind Pressure Humidity
00:00 +28°C° 0 mm 1 mps 753 mmHg 91%
01:00 +28°C° 0 mm 1 mps 753 mmHg 92%
02:00 +28°C° 0 mm 1 mps 753 mmHg 93%
03:00 +28°C° 0 mm 1 mps 753 mmHg 93%
04:00 +27°C° 0 mm 1 mps 753 mmHg 94%
05:00 +27°C° 0 mm 1 mps 753 mmHg 95%
06:00 +29°C° 0 mm 1 mps 753 mmHg 88%
07:00 +30°C° 0 mm 2 mps 753 mmHg 82%
08:00 +32°C° 0 mm 2 mps 753 mmHg 75%
09:00 +34°C° 0 mm 2 mps 753 mmHg 69%
10:00 +36°C° 0 mm 3 mps 753 mmHg 63%
11:00 +37°C° 0 mm 4 mps 753 mmHg 57%
12:00 +38°C° 0 mm 4 mps 753 mmHg 54%
13:00 +38°C° 0 mm 4 mps 752 mmHg 52%
14:00 +40°C° 0 mm 5 mps 752 mmHg 49%
15:00 +39°C° 0 mm 5 mps 752 mmHg 52%
16:00 +37°C° 0 mm 4 mps 751 mmHg 55%
17:00 +36°C° 0 mm 4 mps 751 mmHg 59%
18:00 +34°C° 0 mm 3 mps 752 mmHg 67%
19:00 +33°C° 0 mm 3 mps 752 mmHg 75%
20:00 +30°C° 0 mm 2 mps 753 mmHg 83%
21:00 +29°C° 0 mm 2 mps 753 mmHg 86%
22:00 +29°C° 0 mm 1 mps 754 mmHg 88%
23:00 +28°C° 0 mm 1 mps 754 mmHg 91%

20 July, Monday

Time Temperature Precipitation Wind Pressure Humidity
00:00 +28°C° 0 mm 1 mps 754 mmHg 92%
01:00 +28°C° 0 mm 1 mps 754 mmHg 93%
02:00 +27°C° 0 mm 1 mps 754 mmHg 95%
03:00 +27°C° 0 mm 1 mps 754 mmHg 95%
04:00 +27°C° 0 mm 1 mps 754 mmHg 96%
05:00 +27°C° 0 mm 1 mps 754 mmHg 96%
06:00 +28°C° 0 mm 1 mps 754 mmHg 89%
07:00 +30°C° 0 mm 1 mps 755 mmHg 81%
08:00 +32°C° 0 mm 1 mps 755 mmHg 74%
09:00 +35°C° 0 mm 2 mps 755 mmHg 65%
10:00 +36°C° 0 mm 2 mps 755 mmHg 57%
11:00 +38°C° 0 mm 2 mps 755 mmHg 48%
12:00 +39°C° 0 mm 3 mps 755 mmHg 46%
13:00 +40°C° 0 mm 3 mps 754 mmHg 43%
14:00 +41°C° 0 mm 4 mps 754 mmHg 41%
15:00 +40°C° 0 mm 3 mps 754 mmHg 45%
16:00 +39°C° 0 mm 3 mps 753 mmHg 49%
17:00 +38°C° 0 mm 3 mps 753 mmHg 53%
18:00 +35°C° 0 mm 3 mps 754 mmHg 62%
19:00 +32°C° 0 mm 2 mps 754 mmHg 72%
20:00 +30°C° 0 mm 1 mps 755 mmHg 82%
21:00 +29°C° 0.1 mm 1 mps 755 mmHg 84%
22:00 +29°C° 0.1 mm 1 mps 756 mmHg 87%
23:00 +28°C° 0.1 mm 1 mps 756 mmHg 89%
Show more